This demonstration page uses our WeatherBlox Daily Observations layout. Learn more.

Left ArrowRight Arrow

Hourly Observations for May 14, 2019

Temp ( °F °C ) Dew Point ( °F °C ) Humidity (%) Winds ( mph kmh ) Pressure ( in mb ) Visibility ( mi km ) Precip ( " mm )
12:52 am 00:52 Cloudy 60 15.6 50 10 70 70 SSE 12 19 29.88 1012 10 16 0.00 0.00
1:52 am 01:52 Cloudy 61 16.1 50 10 67 67 SSE 12 19 29.88 1012 10 16 0.00 0.00
2:52 am 02:52 Cloudy 61 16.1 51 10.6 70 70 S 15 24 29.87 1011 10 16 0.00 0.03
3:52 am 03:52 Cloudy with Light Rain 60 15.6 53 11.7 78 78 SSE 13 20 29.89 1012 10 16 0.01 0.25
4:52 am 04:52 Cloudy 59 15 54 12.2 83 83 S 15 24 29.86 1011 10 16 0.02 0.51
5:52 am 05:52 Partly Cloudy with Light Rain 59 15 54 12.2 83 83 S 15 24 29.84 1011 10 16 0.00 0.03
6:01 am 06:01 Mostly Cloudy with Thunderstorms 59 15 54 12.2 83 83 S 13 20 29.86 1011 10 16 0.01 0.25
6:52 am 06:52 Cloudy with Thunderstorms 59 15 54 12.2 83 83 SSE 16 26 29.86 1011 7 11 0.02 0.51
7:16 am 07:16 Mostly Cloudy 60 15.6 53 11.7 78 78 S 17 28 29.86 1011 10 16 0.02 0.51
7:52 am 07:52 Mostly Cloudy 60 15.6 53 11.7 78 78 S 14 22 29.86 1011 10 16 0.02 0.51
8:52 am 08:52 Mostly Cloudy 62 16.7 54 12.2 75 75 S 14 22 29.87 1012 10 16 0.00 0.00
9:52 am 09:52 Partly Cloudy 66 18.9 54 12.2 65 65 S 12 19 29.88 1012 10 16 0.00 0.00
10:52 am 10:52 Mostly Sunny 69 20.6 55 12.8 61 61 SW 10 17 29.86 1011 10 16 0.00 0.00
11:52 am 11:52 Mostly Sunny 71 21.7 57 13.9 61 61 SW 3 6 29.87 1011 10 16 0.00 0.00
12:52 pm 12:52 Mostly Sunny 75 23.9 59 15 58 58 VRB 3 6 29.86 1011 10 16 0.00 0.00
1:52 pm 13:52 Sunny 77 25 59 15 54 54 E 5 7 29.84 1011 10 16 0.00 0.00
2:52 pm 14:52 Sunny 79 26.1 58 14.4 49 49 E 3 6 29.83 1010 10 16 0.00 0.00
3:52 pm 15:52 Mostly Sunny 81 27.2 57 13.9 44 44 E 5 7 29.82 1010 10 16 0.00 0.00
4:52 pm 16:52 Partly Cloudy 84 28.9 56 13.3 38 38 NE 5 7 29.81 1010 10 16 0.00 0.00
5:52 pm 17:52 Partly Cloudy 83 28.3 57 13.9 41 41 NNE 8 13 29.81 1010 10 16 0.00 0.00
6:52 pm 18:52 Partly Cloudy 82 27.8 57 13.9 42 42 N 7 11 29.82 1010 10 16 0.00 0.00
7:52 pm 19:52 Partly Cloudy 79 26.1 58 14.4 49 49 NNE 5 7 29.82 1010 10 16 0.00 0.00
8:52 pm 20:52 Partly Cloudy 74 23.3 58 14.4 57 57 SSE 3 6 29.83 1010 10 16 0.00 0.00
9:52 pm 21:52 Clear 68 20 57 13.9 68 68 Calm 29.85 1011 10 16 0.00 0.00
10:52 pm 22:52 Clear 67 19.4 61 16.1 81 81 NNW 7 11 29.86 1011 10 16 0.00 0.00
11:52 pm 23:52 Clear 69 20.6 57 13.9 66 66 VRB 3 6 29.87 1012 10 16 0.00 0.00

Powered by AerisWeather